FW93366 Weather Reports


Display with metric or nautical units.
time (UTC)temp
F
wind
direction
speed
MPH
gust
MPH
rain 1hr
in
rain 24hr
in
rain mn
in
humidity
%
barometer
mb
20260507094546 47 0 0.0 3.0 0.00 0.00 0.00 70 1021.1
20260507093048 47 9 2.0 5.0 0.00 0.00 0.00 69 1021.3
20260507091544 48 16 1.0 4.0 0.00 0.00 0.00 70 1021.4
20260507090040 50 0 0.0 0.0 0.00 0.00 0.00 69 1021.4
20260507084544 50 0 0.0 0.0 0.00 0.00 0.00 67 1021.4
20260507083039 51 0 0.0 2.0 0.00 0.00 0.00 69 1021.4
20260507081545 51 86 0.0 3.0 0.00 0.00 0.00 67 1021.3
20260507080045 51 0 0.0 0.0 0.00 0.00 0.00 68 1021.3
20260507074541 51 0 0.0 0.0 0.00 0.00 0.00 70 1021.4
20260507073044 51 0 0.0 0.0 0.00 0.00 0.00 71 1021.5
20260507071543 51 0 0.0 0.0 0.00 0.00 0.00 70 1021.5
20260507070046 52 0 0.0 0.0 0.00 0.00 0.00 68 1021.5
20260507064544 52 0 0.0 0.0 0.00 0.00 0.00 68 1021.4
20260507063048 53 0 0.0 0.0 0.00 0.00 0.00 66 1021.3
20260507061542 54 0 0.0 0.0 0.00 0.00 0.00 67 1021.2
20260507060050 55 0 0.0 0.0 0.00 0.00 0.00 64 1021.1
20260507054546 55 0 0.0 2.0 0.00 0.00 0.00 62 1021.0
20260507053052 58 0 0.0 4.0 0.00 0.00 0.00 57 1021.0
20260507051540 61 0 1.0 7.0 0.00 0.00 0.00 56 1021.0
20260507050039 64 281 0.0 7.0 0.00 0.00 0.00 53 1021.0
20260507044555 65 257 4.0 11.0 0.00 0.00 0.00 53 1020.7
20260507043044 63 0 1.0 4.0 0.00 0.00 0.00 51 1020.7
20260507041548 65 0 1.0 10.0 0.00 0.00 0.00 49 1020.5
20260507040042 66 296 2.0 13.0 0.00 0.00 0.00 51 1020.2
20260507034545 67 257 6.0 12.0 0.00 0.00 0.00 46 1020.0
20260507033044 67 265 4.0 11.0 0.00 0.00 0.00 37 1019.8
20260507031547 66 280 2.0 6.0 0.00 0.00 0.00 35 1019.7
20260507030053 67 0 0.0 7.0 0.00 0.00 0.00 36 1019.5
20260507024549 68 236 1.0 8.0 0.00 0.00 0.00 34 1019.3
20260507023040 70 236 3.0 6.0 0.00 0.00 0.00 36 1019.3
20260507021539 74 202 1.0 7.0 0.00 0.00 0.00 36 1019.2
20260507020048 75 248 2.0 8.0 0.00 0.00 0.00 29 1019.2
20260507014544 75 272 3.0 9.0 0.00 0.00 0.00 26 1019.2
20260507013049 75 222 6.0 10.0 0.00 0.00 0.00 23 1019.2
20260507011542 75 240 5.0 10.0 0.00 0.00 0.00 22 1019.1
20260507010042 76 289 5.0 12.0 0.00 0.00 0.00 22 1019.3
20260507004543 76 232 5.0 11.0 0.00 0.00 0.00 21 1019.2
20260507003038 77 225 5.0 10.0 0.00 0.00 0.00 20 1019.3
20260507001542 78 262 1.0 11.0 0.00 0.00 0.00 18 1019.3
20260507000051 77 282 1.0 9.0 0.00 0.00 0.00 18 1019.4
20260506234543 77 0 1.0 9.0 0.00 0.00 0.00 20 1019.4
20260506233040 76 344 2.0 10.0 0.00 0.00 0.00 19 1019.5
20260506231543 77 257 0.0 9.0 0.00 0.00 0.00 19 1019.6
20260506230047 76 0 2.0 8.0 0.00 0.00 0.00 21 1019.6
20260506224558 76 15 2.0 10.0 0.00 0.00 0.00 19 1019.7
20260506223045 76 347 3.0 7.0 0.00 0.00 0.00 19 1020.0
20260506221545 76 256 4.0 11.0 0.00 0.00 0.00 20 1020.0
20260506220045 75 50 5.0 11.0 0.00 0.00 0.00 21 1020.2
20260506214549 75 17 3.0 7.0 0.00 0.00 0.00 22 1020.3
20260506213046 75 24 4.0 9.0 0.00 0.00 0.00 23 1020.4
20260506211544 74 347 1.0 11.0 0.00 0.00 0.00 23 1020.6
20260506210043 74 0 3.0 11.0 0.00 0.00 0.00 21 1020.8
20260506204541 74 0 2.0 9.0 0.00 0.00 0.00 25 1020.9
20260506203051 73 239 2.0 10.0 0.00 0.00 0.00 27 1020.9
20260506201550 73 280 2.0 10.0 0.00 0.00 0.00 30 1021.0
20260506200045 72 360 3.0 9.0 0.00 0.00 0.00 28 1021.0
20260506194557 73 289 2.0 8.0 0.00 0.00 0.00 30 1021.2
20260506193043 70 281 4.0 10.0 0.00 0.00 0.00 33 1021.4
20260506191539 70 312 4.0 11.0 0.00 0.00 0.00 34 1021.5
20260506190045 69 267 3.0 8.0 0.00 0.00 0.00 38 1021.7
20260506184544 68 56 3.0 8.0 0.00 0.00 0.00 40 1021.8
20260506183039 67 17 2.0 7.0 0.00 0.00 0.00 47 1021.9
20260506181545 65 305 1.0 7.0 0.00 0.00 0.00 49 1021.9
20260506180050 65 0 1.0 5.0 0.00 0.00 0.00 49 1022.0
20260506174545 65 323 1.0 5.0 0.00 0.00 0.00 51 1021.9
20260506173045 64 313 0.0 4.0 0.00 0.00 0.00 54 1021.8
20260506171551 62 0 0.0 3.0 0.00 0.00 0.00 59 1021.6
20260506170040 60 0 2.0 4.0 0.00 0.00 0.00 63 1021.7
20260506164539 59 149 1.0 7.0 0.00 0.00 0.00 62 1021.7
20260506163049 58 0 0.0 3.0 0.00 0.00 0.00 63 1021.6
20260506161546 56 0 0.0 0.0 0.00 0.00 0.00 66 1021.6
20260506160043 55 0 0.0 0.0 0.00 0.00 0.00 67 1021.7
20260506154544 54 0 0.0 0.0 0.00 0.00 0.00 71 1021.6
20260506153047 52 0 0.0 0.0 0.00 0.00 0.00 75 1021.6
20260506151546 50 0 0.0 4.0 0.00 0.00 0.00 78 1021.6
20260506150039 49 0 0.0 0.0 0.00 0.00 0.00 80 1021.5
20260506144551 47 0 0.0 2.0 0.00 0.00 0.00 81 1021.5
20260506143039 46 0 1.0 4.0 0.00 0.00 0.00 82 1021.3
20260506141540 46 0 0.0 3.0 0.00 0.00 0.00 83 1021.1
20260506140057 44 0 0.0 0.0 0.00 0.00 0.00 86 1020.8
20260506134546 43 0 0.0 0.0 0.00 0.00 0.00 88 1020.7
20260506133046 42 0 0.0 0.0 0.00 0.00 0.00 88 1020.5
20260506131548 42 0 0.0 0.0 0.00 0.00 0.00 88 1020.4
20260506130046 42 0 0.0 0.0 0.00 0.00 0.00 89 1020.0
20260506124546 42 0 0.0 0.0 0.00 0.00 0.00 88 1019.7
20260506123046 42 0 0.0 0.0 0.00 0.00 0.00 88 1019.5
20260506121542 43 0 0.0 0.0 0.00 0.00 0.00 89 1019.3
20260506120048 43 0 0.0 0.0 0.00 0.00 0.00 89 1019.0
20260506114543 43 0 0.0 0.0 0.00 0.01 0.00 89 1019.0
20260506113050 43 0 0.0 0.0 0.00 0.01 0.00 88 1018.8
20260506111543 43 0 0.0 0.0 0.00 0.01 0.00 88 1018.6
20260506110041 43 0 0.0 0.0 0.00 0.01 0.00 87 1018.4
20260506104554 43 0 0.0 0.0 0.00 0.04 0.00 84 1018.2
20260506103044 45 0 0.0 0.0 0.00 0.04 0.00 84 1018.2
20260506101551 45 0 0.0 0.0 0.00 0.04 0.00 83 1017.9
20260506100045 45 0 0.0 0.0 0.00 0.04 0.00 83 1017.7